Weather in Kozhar-Yandoba

Russia / Chuvash Republic     55°41′39″N   47°01′37″E
temp.,
°C
wind,
m/s
gust,
m/s
humid.,
%
clouds,
%
prec.,
mm/h
press.,
hPa
HPBL,
m
17 may, mon
mon1700:00+16wsw3380100 0.0 101536
03:00+15wsw228718 0.0 101612
06:00+18ne1181100 0.1 101761
09:00+23ese116562 0.1 1017417
12:00+26se125293 0.0 1017989
15:00+28ese12475 0.0 10161046
18:00+26nne22615 0.0 101620
21:00+19ne338045 0.6 101735
18 may, tue
tue1800:00+18sse11766 0.7 101711
03:00+17ene468929 0.7 101784
06:00+19ese38866 0.0 1018218
09:00+24ese46667 0.0 1018517
12:00+27ese56508 0.0 10171253
15:00+28ese46425 0.0 10172849
18:00+25e5106612 0.0 1017266
21:00+20e49785 0.0 1017140
19 may, wed
wed1900:00+18e411805 0.0 1017185
03:00+16ese412805 0.0 1017246
06:00+18ese512766 0.0 1017319
09:00+22ese69626 0.0 1017568
12:00+25ese78545 0.0 10171040
15:00+25ese68515 0.0 10171163
18:00+22e510620 0.0 1016315
21:00+18e413720 0.0 1017220
20 may, thu
thu2000:00+16ese413750 0.0 1016254
03:00+16se514770 0.0 1017292
06:00+17se613720 0.0 1017384
09:00+21se710570 0.0 1017672
12:00+23se810500 0.0 10171081
15:00+24se710500 0.0 10171274
18:00+21se613560 0.0 1017470
21:00+16se412640 0.0 1017198
21 may, fri
fri2100:00+14sse4116796 0.0 1017188
03:00+13sse4969100 0.0 1017152
06:00+16s367660 0.0 1018203
09:00+18ssw477599 0.0 1018616
12:00+22sw795013 0.0 10191750
15:00+23wsw575392 0.0 10181797
18:00+20wsw496972 0.1 1019545
21:00+15sw22815 0.1 102012